Regional Weather Roundup
Issued by NWS

Home | Current Version | Previous Version | Text Only | Print | Product List | Glossary On
Versions: 1 2 3 4 5 6 7 8 9 10 11 12 13 14 15 16 17 18 19 20 21 22 23 24 25 26 27 28 29 30 31 32 33 34 35 36 37 38 39 40 41 42 43 44 45 46 47 48 49 50
000
ASUS45 KREV 012110
RWRNV
NEVADA REGIONAL WEATHER ROUNDUP
NATIONAL WEATHER SERVICE RENO NV
100 PM PST SUN MAR 01 2015

NOTE: "FAIR" INDICATES FEW OR NO CLOUDS BELOW 12,000 FEET WITH NO
SIGNIFICANT WEATHER AND/OR OBSTRUCTIONS TO VISIBILITY.

NVZ001-003-004-012200-
WESTERN NEVADA

CITY           SKY/WX    TMP DP  RH WIND       PRES   REMARKS
RENO           PTSUNNY   42  27  55 NE8       30.03F
CARSON CITY    CLOUDY    41  27  56 E10       30.02F
MINDEN         CLOUDY    39  27  60 N9        30.02
SLIDE MTN        N/A     25  23  93 CALM        N/A
PYRAMID LAKE     N/A     43 N/A N/A E2          N/A
FALLON         PTSUNNY   47  30  51 NE6       30.00F
LOVELOCK       SUNNY     48  26  42 VRB3      30.01F
HAWTHORNE      MOSUNNY   45  32  61 NW14      30.00F
$$

NVZ002-CAZ072-073-012200-
NORTHERN AND CENTRAL SIERRA

CITY           SKY/WX    TMP DP  RH WIND       PRES   REMARKS
S. LAKE TAHOE  PTSUNNY   36  23  59 N9        29.97F
TRUCKEE        PTSUNNY   34  25  69 N3        29.99F
SQUAW VLY 8000   N/A     28  28 100 E3          N/A
SUSANVILLE     SUNNY     46  28  49 SE6       30.04F
BLUE CANYON    SUNNY     43  24  47 VRB7      29.96F
MAMMOTH LAKES  LGT SNOW  32  23  69 NE8       29.93F
BRIDGEPORT     CLOUDY    35  24  64 NE8       29.92F
$$

NVZ030-031-036-012200-
NORTHERN NEVADA

CITY           SKY/WX    TMP DP  RH WIND       PRES   REMARKS
ELKO           SUNNY     45  20  36 CALM      30.00F
WINNEMUCCA     SUNNY     46  25  43 N15       30.02F
WENDOVER       SUNNY     45  18  33 SE8       30.06F
$$

NVZ035-037-012200-
CENTRAL NEVADA

CITY           SKY/WX    TMP DP  RH WIND       PRES   REMARKS
ELY            MOSUNNY   39  30  70 NE10      29.99F
EUREKA           N/A     41  22  46 CALM      29.97F
$$

NVZ013-014-012200-
SOUTH CENTRAL NEVADA

CITY           SKY/WX    TMP DP  RH WIND       PRES   REMARKS
TONOPAH        FLURRIES  38  28  67 NW8       29.95F
$$

NVZ017-020-022-012200-
SOUTHERN NEVADA

CITY           SKY/WX    TMP DP  RH WIND       PRES   REMARKS
LAS VEGAS      CLOUDY    56  33  42 E5        29.93F
N. LAS VEGAS   CLOUDY    55  32  41 SE8       29.95F
NELLIS AFB     CLOUDY    56  35  45 NE13      29.95F
HENDERSON      CLOUDY    54  35  48 NE6       29.97F
MERCURY        CLOUDY    52  30  43 E8        29.93F
$$


USA.gov is the U.S. government's official web portal to all federal, state and local government web resources and services.